Location: Culleoka
(33.1312°N, 96.4919°W)
Time: 05:10:26
(UTC+00:00)

H-2A R/B - Pass Details

Date: 05 July 2022
Orbit: 577 x 651 km, 98.5° (Epoch: 07 August)

Event Time Altitude Azimuth Distance (km) Brightness Sun altitude
Rises 03:41:47 0° 352° (N) 2,947 6.4 -21.1°
Reaches altitude 10° 03:44:34 10° 334° (NNW) 2,044 5.8 -21.5°
Maximum altitude 03:47:32 18° 292° (WNW) 1,593 4.9 -21.9°
Drops below altitude 10° 03:50:31 10° 250° (WSW) 2,050 4.9 -22.3°
Sets 03:53:20 0° 231° (SW) 2,959 5.6 -22.7°
